Wind_Speed
19 20 20 20 21 22 21 21 21 20 20 20 21 21 17 14 11 10 12 12 11 15 19 19 19 18 18 20 22 22 23 23 23 24 25 24 23 23 25 27 29 29 29 29 29 28 28 27 25 23 25 29 30 28 26 28 33 35 36 38 31 21 20 27 32 34 34 35 33 31 31 32 32 33
19 20 20 21 22 22 21 21 21 20 20 20 21 21 20 18 14 10 12 13 12 14 18 20 21 22 23 23 25 26 25 25 25 25 26 25 25 24 26 28 29 30 31 30 30 30 29 28 27 24 24 27 30 30 28 27 30 30 30 34 37 32 22 18 23 26 27 30 32 32 32 32 32 32
19 20 21 21 22 22 21 21 21 20 20 20 21 20 20 20 18 15 12 12 16 18 19 22 24 26 28 27 27 28 27 26 26 26 26 26 26 26 26 27 29 29 30 31 31 31 30 29 28 27 25 25 28 31 30 28 28 28 27 27 32 37 32 22 20 20 20 23 27 29 31 31 30 31
19 20 21 22 22 22 21 21 21 20 20 20 20 20 20 19 20 20 15 12 18 24 24 26 26 26 28 29 27 28 28 26 26 26 26 26 26 25 24 24 26 27 29 30 31 31 31 30 28 28 27 26 27 30 30 30 28 27 27 26 27 33 35 30 26 24 22 22 24 26 29 30 30 30
19 20 22 23 22 21 21 21 21 20 20 20 19 19 19 19 19 21 19 13 16 23 25 26 27 26 27 29 27 26 27 26 26 26 26 25 25 24 24 23 24 26 28 30 32 32 31 30 29 29 28 27 27 29 30 30 30 28 27 28 28 30 32 33 32 30 29 27 26 25 26 28 30 31
20 20 22 22 22 20 20 20 20 20 20 19 19 19 19 21 20 21 22 18 14 18 24 26 27 26 24 26 27 26 27 28 27 27 26 25 24 24 24 24 24 26 27 29 32 33 31 30 30 29 29 28 27 29 31 31 31 29 28 29 29 30 31 33 34 32 32 31 30 29 28 28 29 30
19 19 21 21 21 20 20 20 19 19 19 18 19 20 20 21 22 22 24 22 16 16 21 25 27 25 24 26 28 28 28 28 27 27 27 25 25 24 24 24 24 25 26 28 30 33 32 30 29 28 29 29 29 29 31 32 32 31 30 30 30 31 31 32 33 33 33 32 32 32 31 30 30 30
18 19 20 20 20 20 19 19 18 18 19 20 20 21 22 22 23 23 23 24 23 20 19 23 26 27 26 27 28 28 26 26 26 26 26 25 25 25 25 25 25 25 27 28 30 32 32 30 29 29 29 30 30 31 31 32 33 33 33 32 31 31 32 33 33 33 33 33 32 33 34 33 33 31
16 17 19 20 19 18 18 18 18 18 20 22 22 23 23 23 23 25 24 24 26 24 21 23 27 28 27 26 25 24 24 24 24 24 24 24 24 25 25 25 25 25 26 28 30 33 32 30 30 29 29 30 31 32 33 33 34 34 34 34 33 32 32 33 34 34 34 33 33 33 35 35 34 34
15 16 18 19 18 17 17 17 18 21 23 24 24 24 24 25 25 25 24 24 25 26 26 27 27 25 25 24 23 22 22 22 23 23 23 23 24 24 24 24 23 22 24 25 27 30 30 31 32 31 30 30 30 32 33 34 35 36 34 34 33 33 33 32 33 34 34 34 34 34 35 36 36 35
15 16 17 18 18 16 16 18 20 22 24 24 24 25 25 25 24 24 25 26 26 26 25 23 23 23 22 22 22 22 21 22 22 22 20 19 21 22 22 22 21 20 22 23 24 25 26 27 30 32 32 31 31 31 33 34 35 36 36 34 34 34 34 34 33 33 34 34 34 35 36 37 38 37
14 16 17 17 17 16 16 19 22 23 25 25 25 26 25 24 24 25 25 24 22 21 20 19 20 21 20 20 21 20 20 18 17 18 17 16 19 22 21 22 21 20 20 21 22 24 26 25 25 27 29 30 32 32 32 33 35 35 36 36 35 35 35 35 34 34 34 34 34 34 35 37 38 39
14 15 17 17 17 17 18 20 23 25 28 28 26 24 23 22 24 24 22 19 18 18 16 15 16 16 15 17 18 17 17 15 16 19 19 18 21 22 22 23 23 21 21 20 21 23 23 23 22 23 24 27 31 33 33 33 35 36 36 36 36 36 36 35 35 34 34 33 33 33 33 35 37 39
15 15 17 18 18 18 19 20 23 26 29 30 27 22 21 22 22 20 18 17 17 16 12 12 13 11 10 15 17 17 18 19 20 21 18 18 19 18 17 20 21 22 23 21 21 21 20 20 21 22 23 25 27 31 34 35 36 36 37 37 37 37 37 36 35 34 33 32 32 31 32 33 35 37
16 17 19 18 17 17 19 22 25 28 32 31 25 21 22 22 20 18 18 18 17 16 14 13 14 10 10 15 19 19 20 20 20 20 18 17 16 12 9 11 13 19 24 21 18 18 19 20 21 22 24 24 25 29 35 38 38 38 37 37 37 37 37 36 35 34 33 31 30 30 31 32 33 35
16 18 20 18 16 16 19 23 27 31 34 28 21 21 23 21 19 19 19 18 17 16 15 15 15 13 13 17 19 19 20 21 21 21 20 18 17 12 8 9 11 15 22 21 15 15 18 19 20 22 23 24 24 27 33 36 36 37 36 35 36 36 35 35 34 33 32 30 30 30 30 31 32 34
16 18 19 18 16 17 20 25 30 33 31 25 21 22 22 19 19 20 19 18 17 17 16 16 17 17 17 19 21 21 22 23 23 21 20 19 18 16 12 13 17 15 17 20 14 13 17 18 17 21 22 23 22 24 29 33 33 34 35 33 33 34 34 34 33 31 31 30 30 29 29 30 32 33
16 16 17 17 17 18 22 28 32 31 29 25 21 20 20 19 19 19 18 17 17 17 16 17 19 22 22 22 24 25 24 24 24 22 21 19 19 20 19 20 27 25 17 20 14 9 15 17 16 19 20 20 20 20 24 30 31 32 34 33 32 32 33 32 31 30 29 29 29 29 29 30 31 32
16 15 16 15 15 19 25 30 31 29 28 25 21 20 21 20 19 18 17 18 19 18 17 18 21 24 24 24 25 25 23 24 24 23 24 23 23 24 22 22 28 28 21 22 14 5 11 16 14 16 18 18 16 15 19 26 29 30 32 33 32 31 32 31 30 29 29 28 28 29 29 30 31 31
15 14 14 14 15 20 27 29 28 28 28 24 20 21 22 22 21 19 17 19 20 19 18 20 21 22 24 24 24 23 21 21 22 21 21 22 22 19 13 12 16 16 16 21 15 5 7 13 13 14 16 14 13 14 17 22 26 30 32 32 32 31 31 31 29 28 28 28 28 29 29 29 30 30
15 14 14 13 16 22 26 27 27 28 26 21 20 22 23 24 23 20 20 24 23 20 19 19 19 20 21 21 22 21 18 17 17 15 13 13 12 10 7 7 8 7 10 16 15 7 5 9 12 11 10 10 10 12 16 19 22 27 30 31 31 31 30 30 29 28 28 28 28 28 28 28 28 27
15 16 15 13 16 21 24 26 27 26 24 20 19 22 24 25 23 21 24 30 29 27 25 22 19 19 19 20 22 19 16 16 15 11 9 10 9 6 5 5 4 6 5 5 8 7 4 7 11 8 5 5 8 10 13 16 17 22 26 28 28 30 30 29 28 27 27 28 28 27 27 27 26 26
15 16 15 13 16 21 24 25 25 24 23 19 17 20 23 23 23 24 26 27 28 29 29 28 26 24 23 24 26 24 22 21 20 16 14 14 10 6 5 5 2 5 4 3 2 4 4 7 10 9 5 3 6 8 11 14 17 19 22 24 26 28 29 28 28 28 27 27 27 26 25 25 24 25
14 16 14 13 17 23 24 24 24 23 22 19 16 18 20 21 24 26 24 23 23 25 27 28 27 26 28 30 30 30 30 30 29 26 23 19 13 9 7 7 3 2 3 5 3 1 4 6 10 11 7 3 3 6 9 12 16 19 21 22 24 25 27 27 27 28 27 26 26 25 23 23 23 24
12 13 13 14 19 23 23 23 22 22 21 18 17 19 21 22 23 22 21 22 24 23 25 27 25 25 29 32 32 34 37 37 36 33 29 25 20 13 10 10 7 3 5 8 4 1 4 6 9 10 7 3 2 5 7 9 13 18 21 22 23 24 25 27 27 26 26 25 25 24 23 22 22 23
9 11 13 16 20 22 22 21 20 21 21 19 18 21 23 23 22 18 17 21 23 20 20 21 20 22 25 29 33 39 42 41 38 36 33 29 23 17 13 13 10 5 9 11 5 2 4 6 9 9 6 4 3 4 6 6 9 15 19 21 22 24 25 27 26 24 23 23 23 24 24 22 20 22
10 12 13 16 19 20 19 19 19 19 20 19 20 22 24 24 21 18 17 21 21 18 18 18 19 22 25 25 29 36 41 39 36 35 34 30 24 19 15 15 16 16 16 15 8 2 2 4 7 9 8 6 4 4 4 4 6 12 16 19 22 24 25 26 25 24 23 23 22 22 23 22 22 22
12 12 13 15 16 16 16 17 19 20 20 20 21 23 25 26 25 22 20 21 21 18 19 20 19 22 25 25 28 33 35 34 34 35 35 31 27 23 18 16 21 27 27 22 15 8 4 1 2 7 8 7 5 5 5 4 6 12 15 16 19 22 25 26 26 25 23 22 21 21 21 22 23 24
10 9 10 11 11 12 14 18 21 22 23 23 22 24 28 29 27 22 19 20 21 19 18 20 20 22 29 31 32 34 34 35 38 39 39 37 34 29 25 22 25 29 31 29 25 19 12 7 3 2 6 8 6 4 4 4 5 10 14 13 13 19 24 26 25 24 23 22 21 21 21 21 23 24
8 7 8 9 11 14 16 19 22 23 25 27 26 27 30 28 23 19 17 19 20 19 19 20 19 24 31 34 35 37 38 39 41 41 38 39 39 35 28 26 30 34 34 32 31 28 22 15 9 4 2 6 7 5 5 4 4 8 14 14 11 12 18 24 25 23 23 23 21 20 21 20 20 22
6 6 8 10 12 15 17 19 22 23 26 29 29 27 28 25 19 16 17 18 18 17 18 19 19 25 31 33 35 38 37 36 38 39 35 34 36 35 29 23 26 34 38 36 33 30 27 22 17 12 5 3 5 5 6 7 5 6 10 14 12 9 13 22 24 22 22 22 19 18 19 19 18 20
5 5 9 11 14 18 20 21 24 25 26 28 28 26 25 24 18 15 18 20 18 17 19 19 21 26 29 29 31 34 33 33 37 38 36 33 32 32 27 18 17 25 33 37 38 34 29 23 21 19 15 9 3 3 5 5 4 5 8 11 11 8 11 18 20 18 19 20 16 16 17 17 17 17
5 7 12 15 16 18 19 19 21 23 24 25 26 25 22 20 17 14 15 17 17 17 19 21 22 25 25 25 27 28 30 34 37 35 34 33 31 28 24 17 14 17 20 26 33 37 35 28 20 17 20 23 19 12 7 4 2 2 4 7 7 6 10 15 16 17 19 19 15 13 15 16 18 17
6 9 11 13 14 13 13 13 14 16 17 18 20 21 18 16 16 14 13 15 16 15 16 19 20 22 22 22 24 25 26 30 34 32 30 29 27 23 19 16 16 17 16 17 23 31 37 35 27 20 19 24 27 28 24 16 10 8 7 5 3 3 9 13 13 17 20 18 14 11 10 14 18 20
8 10 8 8 10 9 9 9 10 11 12 13 14 16 16 14 14 12 14 20 19 14 14 16 17 19 20 20 21 22 22 24 26 27 27 25 22 20 18 15 15 18 18 18 20 24 29 32 30 23 16 13 15 21 27 25 20 16 13 11 10 7 2 8 11 16 19 17 14 10 7 9 14 19
8 10 6 5 7 7 7 8 8 8 10 10 10 12 14 13 11 12 18 22 18 12 12 15 15 16 17 18 18 20 21 21 21 22 24 23 20 19 17 15 16 18 17 17 20 22 22 23 22 15 8 6 5 6 13 20 23 20 16 13 14 13 9 1 6 13 15 16 15 12 8 7 11 16
8 8 5 4 5 6 5 6 7 6 7 8 8 9 10 10 11 14 18 19 15 11 12 13 13 13 15 16 17 18 19 19 19 19 20 20 19 18 17 16 16 18 18 17 19 21 20 20 20 14 6 5 6 3 7 14 20 23 22 19 18 16 12 5 2 7 9 11 14 14 10 9 11 15
7 6 4 4 5 6 4 4 6 6 6 7 7 8 8 8 9 12 13 14 14 13 12 11 12 12 13 13 15 18 19 18 18 18 19 20 20 19 17 16 16 17 17 16 18 20 19 18 19 16 9 5 4 3 5 10 15 21 25 21 19 17 12 7 2 3 5 7 9 11 10 9 11 14
6 5 4 3 4 5 5 4 4 5 5 6 7 9 9 8 8 9 10 12 15 13 10 10 13 14 12 12 13 15 17 18 17 17 18 18 18 18 17 16 16 16 16 16 17 20 21 20 19 17 12 6 6 8 7 7 13 21 26 24 18 17 14 9 5 1 2 5 7 8 8 8 8 10
5 4 4 3 3 5 6 6 5 4 5 6 8 11 11 9 8 9 10 14 16 13 8 10 14 14 11 11 12 13 15 16 16 16 16 16 16 17 17 15 15 15 15 14 16 18 20 22 24 22 18 15 14 14 13 12 15 20 26 26 23 19 15 10 6 3 1 2 5 6 6 6 5 6
5 4 3 2 3 3 5 7 5 4 4 6 8 10 11 9 9 10 12 15 16 13 8 9 12 12 10 10 11 11 13 14 13 13 14 14 16 18 17 16 16 16 14 12 13 17 21 26 28 25 20 19 16 10 7 7 7 12 21 27 27 25 20 13 8 5 2 1 3 3 3 4 3 4
6 5 4 2 2 3 4 6 6 5 5 6 7 9 9 9 10 12 13 13 13 12 9 8 10 11 10 10 10 10 11 11 11 11 12 13 16 18 18 17 17 17 14 11 13 19 25 31 32 28 24 22 18 9 5 6 6 8 17 26 30 29 24 16 9 6 3 2 2 2 1 2 2 2
7 6 4 3 1 2 3 5 6 7 7 9 10 10 8 7 8 10 10 10 10 10 10 9 10 11 12 12 10 9 10 11 11 11 11 12 14 16 16 17 18 17 15 14 17 23 29 32 33 29 25 22 18 11 6 7 9 10 14 20 26 29 28 22 13 8 6 5 5 3 1 1 3 3
9 7 5 4 2 1 2 3 5 6 8 10 11 11 10 8 8 9 8 9 11 13 12 13 13 13 16 16 13 11 14 14 11 10 10 12 14 14 14 17 19 18 17 17 20 23 29 33 32 27 21 18 16 13 9 8 10 12 14 17 20 24 27 26 21 14 8 7 7 6 4 3 6 8
10 8 7 5 3 1 1 2 4 5 7 9 10 11 12 11 10 10 9 10 13 14 13 15 16 16 18 18 15 15 18 16 11 10 11 11 13 14 13 15 18 17 17 19 19 20 24 28 28 24 19 17 17 15 12 11 11 12 15 17 18 20 23 26 25 19 12 9 11 11 9 7 6 8
Wind_Direction
301 299 297 295 294 296 296 295 294 291 288 290 293 291 289 289 293 296 296 294 294 297 298 296 297 297 297 298 297 296 293 290 290 288 286 285 284 283 284 285 285 283 280 278 275 274 275 275 274 272 262 253 249 250 252 253 256 258 258 257 259 255 232 218 216 217 215 213 213 216 218 217 218 220
303 299 298 297 297 299 298 296 294 290 288 291 291 289 286 284 283 286 292 292 289 294 296 294 295 298 298 297 296 294 291 289 288 286 284 282 281 280 279 279 280 280 277 274 272 270 270 271 269 267 263 255 248 246 247 250 252 254 255 256 256 256 246 217 208 211 210 210 213 217 219 219 219 219
303 300 299 299 300 301 299 297 295 291 289 291 291 288 285 282 280 280 284 286 285 289 294 293 293 295 296 295 292 291 290 288 287 285 282 281 280 279 276 274 275 276 274 270 268 266 265 267 267 263 261 257 249 246 245 245 249 251 250 251 252 254 250 231 212 211 206 204 209 214 218 219 220 220
304 302 301 302 303 301 298 297 296 294 292 291 290 288 285 282 279 278 277 278 284 287 289 291 292 292 293 293 290 289 289 288 286 284 282 280 280 278 274 271 270 270 270 267 264 262 261 262 264 260 257 255 250 245 244 244 245 248 248 246 247 251 251 244 233 229 223 216 211 211 215 218 219 221
307 306 304 304 303 301 299 298 296 294 293 293 290 286 284 282 279 277 276 275 283 286 286 288 289 291 292 290 289 288 289 287 286 285 282 280 278 276 273 270 268 265 265 264 260 258 257 258 259 256 252 251 249 245 243 243 243 243 245 245 243 245 247 246 242 238 234 229 222 216 215 216 219 221
310 308 306 304 303 302 300 297 296 295 295 294 291 287 284 282 280 276 275 275 279 286 287 288 289 290 288 287 287 287 287 287 287 285 283 280 277 274 272 269 267 264 262 260 258 255 255 255 255 252 248 246 246 244 242 241 241 240 240 241 241 240 241 243 242 239 236 232 228 225 221 220 221 222
310 308 306 304 305 305 301 297 296 296 296 294 290 288 285 283 281 277 274 274 275 281 287 288 289 289 287 285 287 288 287 286 286 284 282 280 277 273 271 267 264 262 259 256 255 254 254 254 251 247 245 243 241 241 240 239 239 238 237 236 237 237 235 237 238 237 235 232 229 228 227 226 226 225
307 306 305 304 305 305 299 296 298 299 298 297 294 291 289 285 283 281 277 275 277 281 286 288 288 289 289 288 287 288 287 284 283 282 281 281 278 274 271 266 261 259 256 253 252 252 253 252 247 242 241 240 238 237 236 236 236 236 235 234 233 234 233 232 233 234 233 231 228 228 229 230 230 230
304 304 304 303 305 304 299 297 300 300 299 297 294 292 290 288 287 286 283 280 281 282 285 288 288 288 288 287 285 284 285 286 284 283 281 280 279 277 273 267 260 255 253 251 250 249 249 248 244 239 238 237 236 234 233 233 232 232 234 234 232 232 232 231 230 230 231 230 228 228 229 231 232 233
301 303 303 303 304 301 297 298 298 298 298 296 293 292 292 292 291 289 288 286 285 283 283 285 286 286 285 285 285 284 284 285 285 286 285 283 280 278 273 266 259 251 247 246 245 245 243 242 241 239 237 235 234 233 232 231 231 230 231 232 232 231 231 231 230 230 230 230 229 228 230 232 233 235
299 303 302 301 302 299 295 298 301 302 301 297 296 298 298 297 295 294 292 289 286 282 280 280 281 283 284 284 285 287 286 284 283 283 285 286 284 280 273 265 256 246 243 241 238 236 234 235 238 237 235 233 232 232 231 231 231 230 229 229 230 231 231 231 230 230 229 230 230 230 231 233 234 236
301 305 304 300 299 297 298 303 306 306 304 301 302 304 303 301 299 297 293 289 285 282 281 281 282 284 286 284 285 288 288 285 281 279 281 286 288 287 282 273 258 242 236 234 230 229 228 227 230 233 233 232 230 230 230 230 230 230 229 227 227 228 230 230 230 230 229 229 230 231 233 234 236 237
306 307 308 304 300 300 301 306 309 308 307 309 309 307 306 307 303 298 294 290 288 285 283 283 284 285 285 285 286 288 287 285 285 286 286 285 285 286 285 281 265 241 228 226 224 223 219 217 219 222 226 229 229 228 228 228 229 229 227 226 225 225 227 228 228 229 229 229 230 232 234 235 237 239
313 312 312 309 304 304 306 309 311 310 312 313 311 308 312 312 307 302 298 295 291 289 287 287 287 287 282 283 286 287 287 287 287 286 284 282 284 285 285 283 267 239 223 219 222 220 213 209 211 214 218 223 226 226 226 226 226 227 226 224 223 223 224 226 227 227 228 229 230 231 233 235 237 239
316 316 317 313 307 307 312 315 314 315 317 313 306 312 320 317 311 308 303 299 297 294 291 287 285 282 281 284 285 284 286 287 284 282 282 281 283 283 280 282 266 233 219 216 219 218 212 208 210 213 215 218 221 223 224 225 224 225 225 224 222 222 223 224 226 227 227 228 230 231 233 234 235 237
318 318 318 315 309 309 314 316 319 323 322 315 309 319 325 319 314 313 307 304 303 299 294 289 285 282 283 287 285 283 286 287 284 282 280 276 273 271 265 270 268 234 212 212 220 217 210 208 211 215 217 217 218 221 223 224 224 223 223 223 222 222 223 224 226 226 226 227 229 231 232 233 234 235
320 319 317 315 312 313 317 322 327 328 327 324 321 324 323 318 317 317 312 307 305 301 296 290 286 285 285 286 284 283 285 285 284 282 278 271 268 266 260 260 270 256 208 201 213 217 208 205 210 217 219 217 219 224 225 224 224 223 223 222 222 222 223 224 225 225 225 227 229 231 232 233 234 234
320 319 316 314 312 313 321 329 332 330 330 331 328 324 322 319 318 317 314 312 311 307 299 291 287 287 287 286 284 286 286 284 282 278 274 272 266 264 266 267 275 278 239 200 198 213 208 203 208 218 218 217 220 225 226 226 226 224 222 221 222 222 222 223 223 223 224 226 229 231 232 232 234 235
320 319 317 314 310 314 325 332 333 333 335 334 328 324 323 321 319 317 316 317 316 312 304 295 290 290 290 290 290 291 290 286 281 276 273 273 268 267 273 273 272 273 246 205 195 209 205 198 206 218 216 215 219 222 225 227 226 223 220 219 219 221 221 222 222 222 223 225 228 231 232 233 235 236
320 320 320 316 312 319 328 333 334 338 340 336 329 327 325 324 323 320 320 325 325 320 315 308 302 299 299 300 301 302 299 294 292 287 276 269 262 257 263 267 261 253 223 203 201 209 200 193 203 217 215 213 218 222 224 227 225 222 219 218 218 219 220 221 221 221 222 223 226 229 232 234 237 239
321 324 323 318 318 324 329 333 337 342 343 339 334 330 327 327 328 326 328 335 338 335 328 323 316 312 310 314 319 317 309 309 314 305 283 270 264 247 238 253 244 208 190 198 200 203 203 193 198 209 210 210 218 223 224 224 222 220 218 217 218 218 219 221 221 221 221 221 223 227 230 233 236 239
323 330 326 319 323 328 332 336 341 345 346 344 338 333 331 329 330 333 335 337 343 348 348 346 342 336 332 335 341 342 334 333 340 332 305 303 300 270 248 256 214 151 134 170 188 201 201 182 190 192 178 199 217 221 221 219 217 216 215 215 218 218 219 221 222 222 222 222 223 226 229 232 233 234
326 334 331 324 328 333 337 341 344 347 350 349 341 337 335 330 330 334 333 331 336 342 347 351 351 349 348 349 355 3 3 1 5 2 344 332 315 284 285 299 221 144 102 67 136 194 195 179 187 186 163 185 212 209 214 216 214 212 210 211 216 219 220 222 223 223 223 224 224 225 229 231 230 229
326 335 333 327 332 337 340 344 346 349 354 353 346 343 342 334 328 329 329 331 335 338 343 351 351 349 354 359 3 7 8 12 15 11 4 358 338 311 315 332 341 104 70 32 33 218 215 197 191 194 200 216 191 184 200 210 211 210 207 207 213 218 220 222 223 224 226 226 225 225 228 230 228 226
323 334 333 328 332 338 342 346 348 350 355 356 352 349 345 337 332 330 333 340 346 347 349 352 350 347 353 1 4 5 8 13 15 14 14 14 5 356 358 0 3 34 26 15 17 254 236 211 193 196 214 231 170 163 180 196 205 207 206 207 210 213 215 218 220 222 226 227 226 226 228 230 229 226
323 333 331 326 331 337 342 347 350 352 356 358 356 353 348 344 343 341 338 341 344 345 344 345 345 349 353 357 0 4 8 10 10 11 14 16 19 26 27 22 22 10 356 6 25 198 248 229 199 191 197 209 183 160 166 182 199 202 204 207 211 212 212 213 215 216 218 221 222 223 225 227 229 228
329 337 334 326 331 338 342 349 357 1 360 357 355 355 355 357 359 355 349 348 347 343 344 347 352 356 357 356 357 1 4 4 4 8 12 16 25 36 37 32 33 31 24 26 45 111 227 235 210 203 202 201 187 175 181 182 178 186 196 204 209 213 213 211 212 214 215 216 215 216 221 224 225 226
336 338 334 328 333 342 348 0 14 18 11 3 0 1 6 11 12 6 359 356 352 349 353 356 355 354 356 357 357 359 0 0 2 9 16 21 29 38 42 39 35 35 40 44 49 64 75 48 227 219 217 211 195 188 194 186 169 177 186 194 203 210 211 210 211 212 213 213 211 208 212 217 220 223
339 334 337 341 354 6 9 16 24 26 21 17 14 14 17 20 15 7 0 358 358 358 357 355 351 351 356 0 2 2 5 7 10 14 18 22 28 34 38 39 36 36 42 45 45 49 55 48 25 252 230 222 220 210 187 165 169 184 185 183 192 204 207 207 207 208 209 208 206 205 208 212 217 221
341 343 2 14 23 27 26 26 27 26 24 24 25 24 23 21 14 5 0 358 357 357 353 348 346 350 357 3 6 9 12 14 14 15 14 15 20 23 24 28 30 32 38 40 38 39 41 44 45 25 275 221 216 218 197 171 157 182 190 188 184 192 202 203 203 204 205 203 203 205 210 215 220 224
350 356 20 31 33 34 36 34 31 29 26 25 25 25 22 19 13 6 5 1 356 353 349 344 343 351 0 5 8 12 14 12 13 15 13 11 14 15 15 19 18 19 25 31 35 37 38 40 45 39 18 232 215 213 199 190 180 180 189 191 186 184 196 198 199 201 202 200 200 203 208 215 222 226
355 9 29 34 35 35 35 32 29 27 25 22 22 21 19 17 13 8 8 6 0 354 351 348 348 355 0 3 5 8 10 9 11 14 15 14 14 14 19 24 9 3 11 19 26 32 37 41 45 45 48 63 102 178 177 170 174 176 182 190 191 188 191 192 193 196 196 194 195 201 206 212 217 220
11 32 34 31 30 27 25 22 19 17 16 15 16 17 14 10 8 6 6 5 360 352 352 353 353 354 355 356 360 3 5 9 12 13 13 15 15 14 20 25 11 1 2 3 8 16 25 35 46 54 59 64 66 73 86 81 59 101 152 177 180 172 181 188 189 188 189 190 191 198 207 212 214 216
40 45 35 26 24 19 12 11 9 5 3 1 4 8 6 3 6 6 3 5 2 352 351 354 354 353 354 355 359 0 360 2 7 10 12 13 13 13 15 14 6 4 2 355 357 4 12 22 34 47 57 61 62 60 58 51 34 31 50 67 71 131 170 181 186 187 189 191 190 193 206 216 219 222
57 52 36 19 16 10 6 10 5 358 357 353 351 356 359 359 2 2 2 7 7 356 350 354 354 356 358 357 357 358 356 353 356 3 7 10 11 12 14 12 4 359 1 3 0 358 1 9 18 27 36 47 56 54 47 43 37 28 27 29 22 17 126 173 183 190 192 192 192 192 202 217 223 225
68 58 44 19 9 4 4 9 2 353 354 351 345 350 354 353 353 357 3 7 6 358 354 356 353 353 357 356 354 355 355 353 353 358 2 5 7 7 9 12 6 360 2 4 1 359 2 6 9 14 17 20 38 45 32 32 37 34 20 7 7 8 6 11 183 187 189 190 193 197 202 210 219 223
83 65 51 29 11 6 2 359 355 350 347 347 345 346 345 343 347 358 6 7 5 1 359 357 354 352 352 352 352 355 357 358 358 359 360 1 4 6 6 6 3 359 1 3 1 2 7 11 15 18 11 5 22 15 340 358 19 30 23 360 348 356 4 359 193 179 182 184 188 195 204 209 214 221
98 81 62 41 20 15 6 345 343 347 347 347 347 343 340 340 344 354 3 6 6 4 357 354 358 358 353 353 355 357 360 1 1 3 3 3 6 6 1 359 358 355 355 359 3 7 11 14 17 19 18 20 20 355 334 340 351 10 20 9 344 343 357 359 336 171 171 177 180 188 201 209 216 225
110 100 83 58 27 20 14 352 338 339 342 348 354 355 353 347 342 347 357 5 9 7 355 355 4 4 358 357 359 359 3 4 4 5 4 4 6 4 357 355 354 351 351 357 2 7 11 13 9 3 356 344 314 302 295 286 304 335 5 17 3 347 348 347 343 26 147 174 182 186 195 206 220 232
128 116 103 73 42 31 22 10 353 336 339 353 3 5 4 359 352 354 359 5 11 9 352 355 8 8 0 358 359 359 5 7 6 5 1 360 4 3 358 356 355 352 354 0 1 3 5 2 358 353 342 328 317 305 290 278 291 323 353 13 19 13 3 351 338 345 8 165 167 172 185 198 208 214
157 142 129 91 55 40 25 17 7 348 343 353 0 5 8 7 4 5 5 9 14 11 352 352 6 7 2 1 0 359 2 3 2 1 359 356 0 3 1 3 3 1 3 3 357 355 357 358 2 6 2 353 350 340 311 306 316 330 344 359 15 24 21 12 5 0 343 199 162 148 161 178 186 192
175 165 155 131 83 47 29 21 13 5 359 358 360 3 8 7 7 11 12 13 15 12 356 349 359 3 0 1 360 359 1 360 355 355 356 355 358 2 6 9 7 2 1 357 347 347 356 5 11 17 18 14 13 18 11 355 346 329 334 347 2 16 23 26 32 34 36 97 121 89 94 147 175 192
184 178 171 160 130 59 37 23 17 16 13 9 9 10 7 0 1 9 10 8 9 11 6 359 0 4 7 7 2 358 3 4 357 353 354 356 359 2 4 5 2 358 354 349 346 351 3 12 15 16 17 17 16 15 8 353 345 339 338 341 350 2 12 22 34 46 58 75 76 54 22 236 239 240
190 187 181 176 169 106 51 26 19 20 17 14 14 15 12 7 5 7 9 11 14 17 17 14 11 12 15 15 11 7 11 12 5 353 351 356 1 4 2 359 358 358 356 351 349 356 6 12 15 17 16 12 8 4 355 347 347 348 346 343 344 351 359 7 15 19 20 31 36 24 356 291 262 260
194 191 187 183 182 174 87 28 22 23 19 17 17 16 14 15 16 14 14 16 18 20 20 17 16 17 18 17 14 13 14 13 6 0 0 0 1 3 3 0 357 357 357 356 353 353 358 4 12 16 12 6 6 3 350 341 346 350 351 353 351 348 350 356 359 356 349 0 18 17 3 342 302 266
Height
728 725 723 720 717 714 712 709 707 704 702 700 698 695 694 691 685 680 672 664 660 659 657 653 649 649 649 646 644 643 640 638 637 636 634 633 631 630 628 625 623 622 621 620 619 619 619 618 619 620 621 622 624 625 627 627 626 626 626 625 626 628 631 634 636 638 641 645 649 653 656 660 663 666
726 723 721 718 715 712 710 707 705 702 700 698 696 694 692 690 686 682 675 664 657 658 656 653 650 647 646 645 642 640 638 635 635 633 630 629 628 627 626 624 621 618 617 617 616 615 615 616 616 616 618 619 621 622 624 624 623 623 624 625 625 627 630 632 634 636 639 641 645 649 652 656 659 662
724 722 719 717 714 711 708 706 703 700 699 696 694 692 690 688 685 682 678 666 655 656 656 651 650 647 643 643 640 637 635 633 631 630 627 625 624 623 622 620 619 616 614 613 612 612 612 612 613 613 614 616 617 618 620 621 621 621 622 623 624 626 628 630 632 634 636 639 643 646 649 652 655 658
723 720 718 715 712 710 706 704 701 698 697 694 692 690 687 686 683 680 678 668 654 653 655 650 647 646 641 639 637 634 631 630 628 626 624 622 620 619 617 616 615 614 612 610 609 609 609 609 610 611 611 612 613 614 616 617 618 618 619 620 622 625 627 628 630 632 635 638 641 644 646 649 652 655
721 718 716 713 710 708 705 702 699 696 695 692 690 688 685 683 681 677 674 668 655 648 651 649 644 643 640 635 633 632 628 626 625 622 621 619 617 615 613 612 611 610 609 607 606 606 607 607 607 607 608 608 609 610 612 613 614 615 616 618 620 623 625 627 629 631 634 636 638 641 644 647 650 653
719 717 714 711 708 706 703 700 698 695 692 690 687 685 683 679 677 675 670 666 657 647 645 646 642 639 638 633 629 629 626 622 621 619 617 615 614 611 610 608 606 605 604 604 603 603 603 604 604 604 604 605 606 607 609 610 611 612 614 616 619 621 624 625 627 629 632 634 636 638 641 645 648 651
717 715 712 710 707 704 701 698 696 693 690 688 685 682 680 676 673 671 667 663 657 647 641 641 639 635 634 631 626 625 623 620 618 615 613 611 610 608 606 604 602 600 599 599 599 598 599 600 600 600 601 602 603 604 606 607 608 610 612 615 618 620 622 624 625 627 630 632 634 636 639 642 645 648
715 713 711 708 705 702 699 696 694 691 688 686 683 679 676 673 668 666 663 658 654 647 639 636 636 633 630 627 624 622 620 617 614 612 609 607 605 603 602 600 598 596 595 595 595 594 594 595 596 597 597 598 600 601 603 605 606 608 610 612 616 618 620 622 623 625 627 629 631 633 635 638 642 644
713 711 709 706 703 700 697 695 692 690 687 683 680 676 672 669 665 661 658 654 651 646 639 634 632 631 627 624 622 620 617 614 611 608 606 604 601 599 597 595 593 592 592 591 591 590 590 591 592 593 594 595 596 598 600 602 604 606 607 609 612 615 617 619 620 622 625 626 628 630 632 635 638 641
711 710 707 704 702 699 696 693 690 687 684 680 676 672 668 664 661 657 654 651 647 644 639 634 630 627 625 621 618 617 615 611 608 605 602 600 598 595 593 590 589 588 588 587 587 587 587 586 587 589 590 591 593 594 597 599 601 602 604 605 607 610 613 615 617 619 621 623 624 626 628 631 633 636
709 707 705 702 699 697 694 691 688 685 681 677 672 668 664 661 657 654 650 647 644 640 636 632 627 624 622 619 615 613 612 610 606 603 599 596 593 591 588 586 584 584 583 582 583 584 584 584 584 585 586 588 589 591 593 595 597 599 600 602 603 606 609 612 614 616 618 619 621 622 624 626 629 632
707 705 703 700 697 695 692 689 686 683 678 673 669 665 661 658 654 651 647 644 640 637 633 629 626 622 619 617 614 611 610 607 603 601 599 594 591 588 585 582 580 579 578 578 579 580 581 582 582 582 583 584 586 587 589 591 593 595 596 598 600 603 606 609 611 613 614 615 617 618 620 622 625 627
706 703 701 698 695 693 690 687 684 680 676 671 666 662 658 655 651 648 644 640 637 634 631 627 624 621 617 615 612 610 608 605 601 599 598 594 590 587 583 578 575 574 573 574 575 575 576 578 579 579 580 580 582 584 586 588 589 591 593 595 597 599 603 606 608 609 610 611 612 614 616 618 620 623
703 702 699 696 693 690 688 685 681 677 673 669 664 660 656 653 649 645 641 638 636 632 629 626 623 620 616 613 612 608 606 604 600 598 595 592 588 585 581 575 570 568 568 569 569 570 571 573 575 576 577 577 579 580 582 584 585 587 589 591 593 596 599 602 604 605 606 607 608 610 612 614 616 618
702 700 697 694 691 688 686 682 678 674 669 665 661 658 655 651 647 644 640 637 634 631 628 625 622 619 614 612 610 607 603 601 599 595 593 590 586 584 580 574 565 562 563 564 565 565 567 569 570 572 573 574 576 576 577 579 581 583 585 587 590 592 595 598 600 601 602 603 604 605 608 610 612 615
701 698 695 692 690 687 684 680 675 670 665 661 658 656 652 649 645 642 639 635 633 630 627 623 620 617 613 610 608 605 602 599 595 593 590 587 585 581 578 572 564 558 558 560 561 561 563 565 567 568 569 571 572 572 573 575 577 579 581 583 586 588 591 593 595 596 597 598 600 602 604 606 609 611
700 697 694 691 688 686 683 678 673 668 663 659 656 653 649 646 642 639 637 634 632 629 626 622 618 615 612 608 604 602 600 596 592 588 585 583 581 578 574 569 562 557 555 556 557 558 559 561 563 564 565 567 568 568 569 571 573 575 577 579 581 584 586 589 591 592 593 594 596 598 600 603 605 607
699 696 693 690 687 684 681 676 671 667 663 659 655 651 647 643 640 636 633 631 629 626 624 621 615 612 609 606 601 598 596 593 588 584 581 578 577 573 569 565 560 555 553 552 554 554 555 557 559 559 561 563 564 564 565 566 569 571 573 575 577 580 582 585 586 588 589 590 592 594 596 599 601 603
698 695 692 690 687 684 680 675 671 667 663 658 654 649 645 641 637 634 631 628 626 623 621 618 613 609 605 602 598 594 592 588 584 580 577 575 573 570 566 562 556 551 549 549 550 551 551 553 555 556 557 559 560 561 561 563 565 567 569 571 574 576 579 581 583 584 585 587 589 591 593 595 597 598
697 694 691 689 686 683 679 674 671 668 663 659 654 649 644 640 635 631 628 626 623 620 617 614 610 606 602 599 595 591 588 584 579 575 572 569 567 565 562 557 550 546 545 546 547 548 548 550 552 553 555 556 556 557 558 560 562 564 566 568 571 573 576 577 579 580 582 584 586 588 590 591 593 595
695 692 690 688 685 682 678 674 671 668 663 659 655 649 644 639 635 630 626 622 619 617 614 611 607 604 600 596 591 586 583 580 576 571 568 564 561 559 556 549 544 542 543 544 545 546 546 548 550 551 552 553 553 554 556 558 560 561 563 565 567 570 572 574 576 578 579 581 583 585 587 588 590 592
694 691 689 687 685 681 678 675 671 667 664 660 656 651 645 639 634 630 625 620 615 613 610 607 604 600 597 593 589 583 580 577 573 569 565 561 558 555 550 544 539 540 542 543 544 545 545 546 548 549 550 551 552 552 553 555 557 558 560 562 564 566 569 571 573 575 577 579 580 582 584 585 587 589
692 689 687 685 684 681 678 674 671 667 664 660 657 653 647 641 636 632 627 622 616 611 608 604 601 597 594 590 585 580 577 574 570 567 563 560 556 552 547 541 537 538 542 543 543 543 544 545 546 547 549 550 550 551 552 553 554 555 556 558 561 563 566 569 571 573 574 576 578 579 581 583 585 586
691 688 686 684 682 680 677 674 671 667 664 661 657 654 649 644 639 634 629 624 619 614 608 603 599 595 590 585 580 576 573 570 566 564 561 558 555 551 547 542 537 537 541 543 543 543 543 544 545 546 546 547 547 549 550 551 552 553 554 556 558 561 564 566 569 571 572 574 575 577 579 580 582 583
691 688 686 683 681 679 677 674 670 667 664 661 657 654 651 646 641 636 629 624 619 614 609 603 598 593 588 583 578 574 570 566 563 560 557 555 553 550 548 545 542 541 543 543 543 543 543 543 544 545 546 545 545 547 549 551 552 552 553 555 557 559 562 564 566 568 570 572 573 575 576 578 579 580
691 688 686 684 681 679 677 673 670 667 664 660 657 654 651 645 640 636 630 624 619 615 610 605 600 594 589 583 578 573 569 565 562 560 557 554 552 551 550 550 548 546 545 543 542 543 543 542 543 543 545 545 545 546 549 550 551 552 553 554 556 558 560 563 565 566 568 570 571 572 574 575 576 578
690 688 686 684 682 679 677 673 670 666 663 660 657 654 649 644 639 635 630 625 620 615 611 606 601 596 592 587 582 577 573 570 566 563 559 556 554 552 551 551 550 549 547 544 542 542 542 542 542 542 543 544 545 546 547 548 550 551 552 554 556 558 560 562 563 565 567 568 569 571 572 574 575 576
689 687 686 685 682 679 676 673 669 666 663 661 657 653 648 643 638 634 630 626 622 617 612 608 603 600 596 592 588 584 580 576 572 567 563 559 556 554 552 552 551 549 546 544 542 542 542 542 542 542 543 543 543 544 545 546 547 548 550 553 555 557 559 560 562 564 566 567 568 569 570 571 572 573
689 687 686 684 682 679 676 673 669 666 663 660 657 653 648 643 639 636 632 629 625 621 617 613 609 604 600 596 593 589 584 579 573 567 563 560 558 555 554 553 553 550 548 546 544 543 542 542 542 542 542 542 542 542 543 544 545 547 548 551 553 555 557 559 560 562 564 565 566 567 567 568 569 570
689 687 685 684 681 678 676 673 669 667 664 661 657 653 649 646 642 639 636 633 630 627 623 619 615 610 605 601 596 591 586 581 576 572 568 563 560 557 556 554 552 550 548 547 546 544 543 542 542 542 541 542 542 542 542 543 544 546 547 548 550 552 554 556 558 560 561 562 563 564 565 566 567 568
688 687 685 684 681 679 676 673 670 667 664 661 657 654 651 649 646 644 641 638 635 633 629 624 620 615 610 605 599 594 590 586 582 579 575 571 566 562 558 555 553 551 548 547 547 546 544 543 542 542 541 541 541 542 542 543 543 545 546 547 549 550 551 553 555 557 558 560 561 563 563 564 566 567
688 687 685 683 681 679 676 673 670 667 665 662 659 656 654 652 650 648 645 641 638 635 632 627 623 618 613 608 604 599 595 592 588 584 580 577 574 569 563 561 560 558 553 549 547 546 545 544 543 543 542 541 541 541 542 543 543 544 545 547 548 548 549 551 553 554 556 558 560 561 562 563 564 565
688 686 685 683 681 679 676 673 671 669 666 664 661 659 657 655 652 650 647 644 640 637 633 630 625 621 617 613 608 604 600 596 593 589 586 583 579 574 571 570 570 568 564 560 555 551 548 546 545 545 544 542 541 541 542 543 545 545 546 547 547 548 548 550 551 552 554 556 558 560 561 562 563 564
688 686 685 684 682 680 678 676 674 672 669 666 664 661 659 657 654 652 650 648 645 641 638 634 630 626 622 618 614 610 606 602 599 596 593 589 585 581 579 577 577 575 572 569 565 560 555 550 547 546 545 544 544 544 545 547 547 548 548 548 548 548 549 549 551 552 553 554 556 558 559 560 561 563
687 686 686 685 683 682 680 679 677 675 673 670 667 664 662 660 657 655 652 650 648 645 642 639 635 632 628 624 620 617 614 610 605 601 598 595 591 589 587 586 584 581 578 575 572 568 564 559 554 551 548 547 547 547 549 551 551 551 551 550 550 550 549 549 550 551 552 554 556 557 558 559 560 562
687 686 686 685 684 683 682 681 679 677 675 673 670 668 665 662 660 657 655 652 650 648 646 643 640 636 633 630 627 624 620 616 612 607 603 600 597 595 593 592 590 587 583 581 578 575 571 568 564 561 558 555 553 553 554 555 556 555 555 553 552 551 550 549 550 551 551 553 554 556 557 558 559 560
686 686 686 686 685 684 683 682 680 678 676 674 672 670 668 665 662 660 657 655 652 650 648 646 643 640 638 634 631 628 625 621 617 614 610 607 604 601 598 596 594 591 588 586 583 580 577 575 572 571 569 566 564 563 561 558 557 557 558 556 554 552 551 551 551 551 551 552 553 555 557 558 558 559
686 686 686 685 685 684 683 682 681 679 677 675 673 672 670 667 665 662 660 657 655 652 651 649 646 643 641 638 635 632 629 626 623 619 616 613 610 607 604 602 599 596 593 590 587 584 582 580 579 578 578 577 576 574 569 564 560 558 557 558 556 554 552 552 551 551 552 552 553 555 556 557 557 558
685 685 685 685 684 684 683 682 681 680 678 676 674 672 671 668 666 664 662 660 657 655 653 651 649 646 644 641 639 636 634 630 627 625 622 619 617 614 611 608 605 601 597 594 591 588 585 584 584 584 584 584 582 580 578 574 567 561 558 558 558 556 554 553 552 551 551 552 553 554 555 556 556 557
685 684 684 684 684 683 682 682 681 680 678 677 675 673 671 669 668 666 664 662 659 657 656 654 651 649 647 644 642 640 637 635 633 630 628 625 622 620 617 613 610 606 602 598 596 593 590 590 589 587 586 584 581 579 578 575 570 563 560 559 558 557 555 554 553 552 552 552 552 553 553 554 555 556
684 684 684 683 683 682 682 681 681 680 679 677 675 674 672 670 668 667 665 663 661 659 657 656 653 651 649 647 645 643 640 638 636 633 631 628 625 623 620 616 613 610 607 604 602 600 597 595 593 589 587 583 579 577 576 575 571 566 563 560 558 557 556 554 553 553 552 552 552 552 553 554 555 555
683 683 683 682 682 682 681 681 680 679 678 677 676 674 672 671 669 668 666 664 662 660 659 657 655 653 651 649 647 645 643 641 639 636 633 631 628 625 622 620 618 616 614 611 609 606 602 597 593 589 587 584 581 579 579 579 576 572 567 563 560 557 556 555 555 554 553 553 553 553 553 554 554 555
682 682 681 681 681 681 680 680 680 679 678 677 676 674 673 672 670 669 667 665 664 662 660 659 657 655 653 651 649 647 646 643 641 639 636 634 632 629 627 625 623 621 619 616 613 608 604 599 595 591 588 586 585 585 584 583 580 576 572 569 564 560 558 556 555 555 555 554 554 554 554 554 554 554
680 680 680 680 680 680 680 680 679 678 678 677 676 675 674 672 671 670 668 666 665 663 662 660 658 656 655 653 651 649 647 645 644 642 639 637 636 634 632 629 627 624 621 618 614 610 606 602 599 595 593 591 591 589 588 586 583 580 577 574 570 566 562 559 557 556 556 556 555 555 554 554 553 553
679 679 679 679 679 679 679 679 679 678 677 677 676 675 674 673 671 670 669 667 666 664 663 661 660 658 656 654 653 651 649 647 646 644 642 640 639 637 635 633 630 627 624 621 617 613 609 606 602 600 598 597 595 593 591 589 586 583 581 578 574 571 568 565 562 559 558 557 556 555 554 553 552 551